User: anonymous   Login
Location: Vancouver
(49.2500°N, 123.1330°W)
Time: 00:26:09
(UTC-07:00)
Language:

BREEZE-M DEB (TANK) - Orbit

View from above orbital plane
View from above orbital plane
View from above satellite
View from above satellite

Ground track
Ground track

The orbit data is extracted from the following two-line orbital elements,

1 27821U 03024B   15214.26018438  .00003419  00000-0  32362-3 0  9990
2 27821 049.5773 165.9691 4990834 230.7220 330.4081 05.67727509241214
Epoch (UTC): 02 August 2015 06:14:39
Eccentricity: 0.4990834
inclination: 49.5773°
perigee height: 270 km
apogee height: 13519 km
right ascension of ascending node: 165.9691°
argument of perigee: 230.7220°
revolutions per day: 5.67727509
mean anomaly at epoch: 330.4081°
orbit number at epoch: 24121

The dashed part of the orbit path shows where the satellite is in the earth's shadow,  

DLR